This is the latest recevied weather packets stored in our database for station/object WAYLND-WX. If no packets are shown the sender has not sent any weather packets the latest 10 day(s).
| Time | Temp. | Humidity | Pressure | Rain* | Wind** | Luminosity | Snow |
|---|---|---|---|---|---|---|---|
| 1777827671 | 14.44° C | 47% | 984.9 hPa | 0 mm | - | - | - |
| 1777826742 | 13.89° C | 49% | 985.4 hPa | 0 mm | - | - | - |
| 1777825859 | 13.33° C | 49% | 984.4 hPa | 0 mm | - | - | - |
| 1777824941 | 12.78° C | 49% | 984.4 hPa | 0 mm | - | - | - |
| 1777824079 | 13.33° C | 49% | 984.4 hPa | 0 mm | - | - | - |
| 1777823142 | 12.78° C | 52% | 985.7 hPa | 0 mm | - | - | - |
| 1777822258 | 12.78° C | 54% | 985.4 hPa | 0 mm | - | - | - |
| 1777821342 | 12.22° C | 54% | 985.4 hPa | 0 mm | - | - | - |
| 1777820475 | 12.22° C | 54% | 985.4 hPa | 0 mm | - | - | - |
| 1777819542 | 11.11° C | 56% | 985.2 hPa | 0 mm | - | - | - |
| 1777818664 | 10° C | 57% | 985.3 hPa | 0 mm | - | - | - |
| 1777817743 | 11.11° C | 57% | 985.3 hPa | 0 mm | - | - | - |
| 1777816879 | 11.11° C | 57% | 985.3 hPa | 0 mm | - | - | - |
| 1777815942 | 10.56° C | 69% | 985.8 hPa | 0 mm | - | - | - |
| 1777815058 | 10° C | 69% | 985.8 hPa | 0 mm | - | - | - |
| 1777814143 | 8.89° C | 69% | 985.7 hPa | 0 mm | - | - | - |
| 1777813275 | 7.78° C | 69% | 985.7 hPa | 0 mm | - | - | - |
| 1777812342 | 6.67° C | 66% | 984.9 hPa | 0 mm | - | - | - |
| 1777811463 | 6.67° C | 72% | 986 hPa | 0 mm | - | - | - |
| 1777810542 | 6.11° C | 72% | 986 hPa | 0 mm | - | - | - |
| 1777809680 | 5.56° C | 72% | 986 hPa | 0 mm | - | - | - |
| 1777808742 | 4.44° C | 68% | 985.9 hPa | 0 mm | - | - | - |
| 1777807860 | 3.89° C | 72% | 985.1 hPa | 0 mm | - | - | - |
| 1777806943 | 3.89° C | 72% | 985.1 hPa | 0 mm | - | - | - |
| 1777806075 | 3.33° C | 72% | 985.1 hPa | 0 mm | - | - | - |
* Rain latest hour (hover to see other rain measurements)
** Current wind speed in m/s (hover to see current wind gust speed)